User: anonymous   Login
Location: Unspecified
(0.0000°N, 0.0000°E)
Time: 00:55:11
(UTC+00:00)
Language:

Transit 2A - Orbit

View from above orbital plane
View from above orbital plane
View from above satellite
View from above satellite

Ground track
Ground track

The orbit data is extracted from the following two-line orbital elements,

1    45U 60007A   19145.87420167 -.00000056  00000-0  13271-4 0  9997
2    45  66.6943 324.8707 0262107 239.3491 118.1536 14.33637763 67006
Epoch (UTC): 25 May 2019 20:58:51
Eccentricity: 0.0262107
inclination: 66.6943°
perigee height: 592 km
apogee height: 967 km
right ascension of ascending node: 324.8707°
argument of perigee: 239.3491°
revolutions per day: 14.33637763
mean anomaly at epoch: 118.1536°
orbit number at epoch: 6700

The dashed part of the orbit path shows where the satellite is in the earth's shadow,  

DLR